GW4823 Weather Reports


time (UTC)temp
F
wind
direction
speed
knots
gust
knots
rain 1hr
in
rain 24hr
in
rain mn
in
humidity
%
barometer
mb
20260510081530 51 0 0.0 0.0 0.00 0.12 0.00 97 1011.5
20260510081013 50 0 0.0 0.0 0.00 0.12 0.00 97 1011.4
20260510080512 50 0 0.0 1.7 0.00 0.12 0.00 97 1011.4
20260510080033 50 0 0.0 1.7 0.00 0.12 0.00 97 1011.5
20260510075512 50 126 0.0 2.6 0.00 0.12 0.00 97 1011.4
20260510075011 50 0 0.9 2.6 0.00 0.12 0.00 97 1011.3
20260510074530 50 125 0.9 3.5 0.00 0.12 0.00 97 1011.6
20260510074013 49 125 0.0 3.5 0.00 0.12 0.00 97 1011.3
20260510073513 49 126 0.9 2.6 0.00 0.12 0.00 97 1011.4
20260510073030 49 127 0.9 2.6 0.00 0.12 0.00 96 1011.5
20260510072514 49 0 0.0 0.0 0.00 0.12 0.00 96 1010.8
20260510072015 49 0 0.0 0.0 0.00 0.12 0.00 96 1010.8
20260510071532 49 0 0.0 0.0 0.00 0.12 0.00 96 1010.8
20260510071010 49 0 0.0 0.0 0.00 0.12 0.00 96 1010.8
20260510070513 49 0 0.0 1.7 0.00 0.12 0.00 96 1010.8
20260510070031 49 0 0.0 1.7 0.00 0.12 0.00 96 1010.8
20260510065514 49 0 0.0 0.0 0.00 0.12 0.00 96 1010.8
20260510065013 49 0 0.0 0.0 0.00 0.12 0.00 96 1010.9
20260510064543 49 0 0.0 0.0 0.00 0.12 0.00 96 1010.9
20260510064012 49 0 0.0 0.0 0.00 0.12 0.00 96 1010.9
20260510063511 49 0 0.0 2.6 0.00 0.12 0.00 97 1010.9
20260510063031 49 0 0.0 2.6 0.00 0.12 0.00 96 1010.9
20260510062514 49 126 0.9 2.6 0.00 0.12 0.00 96 1011.0
20260510062014 49 0 0.0 0.0 0.00 0.12 0.00 96 1011.3
20260510061533 49 0 0.0 0.0 0.00 0.12 0.00 96 1011.1
20260510061014 49 0 0.0 0.0 0.00 0.12 0.00 96 1011.1
20260510060514 49 0 0.0 0.0 0.00 0.12 0.00 97 1011.1
20260510060030 49 0 0.0 0.0 0.00 0.12 0.00 96 1010.9
20260510055512 48 0 0.0 0.0 0.00 0.12 0.00 96 1010.7
20260510055011 48 0 0.0 0.0 0.00 0.12 0.00 97 1010.8
20260510054530 48 0 0.0 0.0 0.00 0.12 0.00 96 1010.8
20260510054013 48 0 0.0 0.0 0.00 0.12 0.00 96 1010.9
20260510053518 48 0 0.0 0.0 0.00 0.12 0.00 96 1010.9
20260510053041 48 0 0.0 0.0 0.00 0.12 0.00 96 1010.9
20260510052512 47 0 0.0 0.0 0.00 0.12 0.00 96 1010.9
20260510052012 47 0 0.0 0.0 0.00 0.12 0.00 96 1011.0
20260510051546 47 0 0.0 0.0 0.00 0.12 0.00 96 1011.0
20260510051019 47 0 0.0 0.0 0.00 0.12 0.00 96 1011.0
20260510050512 46 0 0.0 0.0 0.00 0.12 0.00 95 1011.1
20260510050029 46 0 0.0 0.0 0.00 0.12 0.00 96 1011.1
20260510045514 46 0 0.0 0.0 0.00 0.12 0.00 95 1011.1
20260510045015 46 0 0.0 0.0 0.00 0.12 0.00 95 1011.1
20260510044531 46 0 0.0 0.0 0.00 0.12 0.00 95 1011.0
20260510044011 46 0 0.0 0.0 0.00 0.12 0.00 95 1011.2
20260510043514 46 0 0.0 0.0 0.00 0.12 0.00 95 1011.2
20260510043031 46 0 0.0 0.0 0.00 0.12 0.00 94 1011.2
20260510042517 46 0 0.0 0.0 0.00 0.12 0.00 94 1011.2
20260510042010 46 0 0.0 0.0 0.00 0.12 0.00 94 1011.1
20260510041534 47 0 0.0 0.0 0.00 0.12 0.00 95 1011.2
20260510041017 47 0 0.0 0.0 0.00 0.12 0.00 94 1011.2
20260510040514 47 0 0.0 0.0 0.00 0.12 0.00 94 1011.3
20260510040033 47 0 0.0 0.0 0.00 0.12 0.00 94 1011.2
20260510035513 47 0 0.0 0.0 0.00 0.12 0.12 94 1011.3
20260510035017 47 0 0.0 0.0 0.00 0.12 0.12 94 1011.2
20260510034530 47 0 0.0 0.0 0.00 0.12 0.12 94 1011.2
20260510034011 47 0 0.0 0.0 0.00 0.12 0.12 93 1011.1
20260510033511 48 0 0.0 0.0 0.00 0.12 0.12 94 1011.0
20260510033029 48 0 0.0 0.0 0.00 0.12 0.12 94 1011.0
20260510032510 48 0 0.0 0.0 0.00 0.12 0.12 93 1011.1
20260510032017 48 0 0.0 0.0 0.00 0.12 0.12 94 1011.1
20260510031531 48 0 0.0 0.0 0.00 0.12 0.12 94 1011.0
20260510031013 48 0 0.0 0.0 0.00 0.12 0.12 94 1010.9
20260510030518 49 0 0.0 0.0 0.00 0.12 0.12 94 1010.9
20260510030032 49 0 0.0 0.0 0.00 0.12 0.12 93 1011.0
20260510025517 49 0 0.0 0.0 0.00 0.12 0.12 93 1010.9
20260510025018 49 0 0.0 0.0 0.00 0.12 0.12 93 1010.8
20260510024532 49 0 0.0 0.0 0.00 0.12 0.12 93 1010.8
20260510024015 49 0 0.0 0.0 0.00 0.12 0.12 93 1010.8
20260510023510 50 0 0.0 0.0 0.00 0.12 0.12 93 1010.9
20260510023029 50 0 0.0 0.0 0.00 0.12 0.12 92 1010.8
20260510022512 50 0 0.0 0.0 0.00 0.12 0.12 93 1010.7
20260510022011 51 0 0.0 0.0 0.00 0.12 0.12 93 1010.7
20260510021532 51 0 0.0 0.0 0.00 0.12 0.12 93 1010.7
20260510021011 51 0 0.0 0.0 0.00 0.12 0.12 93 1010.6
20260510020514 51 0 0.0 0.0 0.00 0.12 0.12 92 1010.7
20260510020031 51 0 0.0 0.0 0.00 0.12 0.12 92 1010.7
20260510015513 52 0 0.0 0.0 0.00 0.12 0.12 92 1010.6
20260510015012 52 0 0.0 0.0 0.00 0.12 0.12 92 1010.6
20260510014532 52 0 0.0 0.0 0.00 0.12 0.12 92 1010.6
20260510014012 52 0 0.0 0.0 0.00 0.12 0.12 92 1010.6
20260510013514 53 0 0.0 0.0 0.00 0.12 0.12 92 1010.7
20260510013034 53 0 0.0 0.0 0.00 0.12 0.12 93 1010.5
20260510012512 53 0 0.0 0.0 0.00 0.12 0.12 92 1010.5
20260510012010 53 0 0.0 0.0 0.00 0.12 0.12 91 1010.5
20260510011530 54 0 0.0 0.0 0.00 0.12 0.12 92 1010.4
20260510011010 54 0 0.0 0.0 0.00 0.12 0.12 92 1010.3
20260510010511 55 0 0.0 0.0 0.00 0.12 0.12 93 1010.3
20260510010029 55 0 0.0 0.0 0.00 0.12 0.12 93 1010.2
20260510005513 55 0 0.0 0.0 0.00 0.12 0.12 92 1010.2
20260510005017 55 0 0.0 0.9 0.00 0.12 0.12 92 1010.2
20260510004531 55 0 0.0 1.7 0.00 0.12 0.12 92 1010.0
20260510004011 55 126 0.0 1.7 0.00 0.12 0.12 92 1010.0
20260510003512 55 126 0.0 1.7 0.00 0.12 0.12 92 1010.0
20260510003031 55 0 0.0 0.9 0.00 0.12 0.12 90 1010.0
20260510002511 56 0 0.0 0.9 0.00 0.12 0.12 90 1010.0
20260510002011 56 0 0.0 0.9 0.00 0.12 0.12 90 1009.9
20260510001529 56 0 0.0 0.9 0.00 0.12 0.12 90 1009.8
20260510001011 57 0 0.0 0.0 0.00 0.12 0.12 90 1009.7
20260510000514 57 0 0.0 0.0 0.00 0.12 0.12 90 1009.7
20260510000032 57 0 0.0 1.7 0.00 0.12 0.12 90 1009.7
20260509235512 57 0 0.0 2.6 0.00 0.12 0.12 90 1009.7
20260509235013 57 126 0.0 3.5 0.00 0.12 0.12 90 1009.7
20260509234531 58 126 1.7 3.5 0.00 0.12 0.12 89 1009.7
20260509234013 58 121 0.9 5.2 0.00 0.12 0.12 89 1009.7
20260509233514 58 138 1.7 5.2 0.00 0.12 0.12 89 1009.8
20260509233033 58 143 0.9 6.1 0.00 0.12 0.12 88 1009.8
20260509232514 58 144 2.6 6.1 0.00 0.12 0.12 88 1009.7
20260509232011 59 181 3.5 6.1 0.00 0.12 0.12 88 1009.9
20260509231534 59 142 1.7 4.3 0.00 0.12 0.12 88 1009.7
20260509231014 59 117 0.9 5.2 0.00 0.12 0.12 87 1009.7
20260509230511 59 118 1.7 5.2 0.00 0.12 0.12 87 1009.8
20260509230030 59 118 2.6 5.2 0.00 0.12 0.12 86 1009.7
20260509225512 60 134 1.7 3.5 0.00 0.12 0.12 85 1009.7
20260509225010 60 133 1.7 3.5 0.00 0.12 0.12 84 1009.5
20260509224532 60 124 1.7 3.5 0.00 0.12 0.12 84 1009.5
20260509224010 60 107 0.0 1.7 0.00 0.12 0.12 82 1009.5
20260509223512 60 107 0.9 1.7 0.00 0.12 0.12 82 1009.6
20260509223030 60 0 0.0 2.6 0.00 0.12 0.12 84 1009.7
20260509222512 59 0 0.0 2.6 0.00 0.12 0.12 82 1009.7
20260509222010 59 53 0.9 2.6 0.00 0.12 0.12 83 1009.7
20260509221529 59 0 0.0 1.7 0.00 0.12 0.12 85 1009.7
20260509221012 59 32 0.0 1.7 0.00 0.12 0.12 87 1009.7
20260509220513 59 0 0.0 0.9 0.00 0.12 0.12 91 1009.7
20260509220039 59 0 0.0 0.9 0.00 0.12 0.12 90 1009.6
20260509215517 58 0 0.0 0.9 0.00 0.12 0.12 90 1009.6
20260509215012 58 0 0.0 1.7 0.00 0.12 0.12 90 1009.6
20260509214532 58 0 0.0 1.7 0.00 0.12 0.12 89 1009.5
20260509214015 58 0 0.0 0.9 0.00 0.12 0.12 89 1009.4
20260509213511 58 0 0.0 0.9 0.00 0.12 0.12 88 1009.4
20260509213033 59 0 0.0 1.7 0.00 0.12 0.12 89 1009.5
20260509212510 59 0 0.0 1.7 0.00 0.12 0.12 89 1009.7
20260509212013 59 0 0.0 4.3 0.00 0.12 0.12 88 1009.7
20260509211534 59 0 0.0 4.3 0.00 0.12 0.12 87 1009.6
20260509211013 59 32 1.7 4.3 0.00 0.12 0.12 88 1009.8
20260509210513 59 0 0.0 0.0 0.00 0.12 0.12 88 1010.0
20260509210032 59 0 0.0 0.0 0.00 0.12 0.12 87 1010.0
20260509205511 59 0 0.0 0.0 0.00 0.12 0.12 89 1010.0
20260509205013 59 0 0.0 0.0 0.00 0.12 0.12 89 1009.9
20260509204530 59 0 0.0 2.6 0.00 0.12 0.12 89 1010.0
20260509204014 59 0 0.0 2.6 0.01 0.12 0.12 88 1009.9
20260509203518 59 38 0.0 1.7 0.01 0.12 0.12 91 1010.0
20260509203037 58 0 0.0 1.7 0.02 0.12 0.12 91 1010.0
20260509202518 58 0 0.0 1.7 0.02 0.12 0.12 90 1010.0
20260509202016 58 38 0.0 1.7 0.02 0.12 0.12 91 1010.0
20260509201530 57 38 0.0 1.7 0.02 0.12 0.12 91 1009.9
20260509201013 57 0 0.0 0.9 0.02 0.12 0.12 92 1009.8
20260509200515 57 0 0.0 0.9 0.02 0.12 0.12 91 1010.0
20260509200038 56 38 0.0 0.0 0.02 0.12 0.12 91 1010.0
20260509195516 56 0 0.0 0.0 0.02 0.12 0.12 91 1010.1
20260509195015 56 0 0.0 0.0 0.02 0.12 0.12 91 1010.2
20260509194545 56 0 0.0 0.0 0.03 0.12 0.12 91 1010.3
20260509194015 56 0 0.0 0.0 0.02 0.11 0.11 91 1010.3
20260509193520 56 0 0.0 0.0 0.03 0.11 0.11 91 1010.4
20260509193037 56 0 0.0 0.0 0.03 0.10 0.10 91 1010.5
20260509192515 56 0 0.0 0.0 0.03 0.10 0.10 91 1010.7
20260509192015 56 0 0.0 0.9 0.04 0.10 0.10 91 1010.7
20260509191535 56 0 0.0 0.9 0.04 0.10 0.10 91 1010.9
20260509191017 56 0 0.0 0.9 0.04 0.10 0.10 91 1010.9
20260509190515 56 0 0.0 2.6 0.04 0.10 0.10 90 1011.1
20260509190032 56 0 0.0 2.6 0.05 0.10 0.10 90 1011.1
20260509185514 56 38 0.0 2.6 0.05 0.10 0.10 91 1011.1
20260509185018 56 0 0.0 0.0 0.05 0.10 0.10 92 1011.3
20260509184536 56 0 0.0 0.0 0.05 0.09 0.09 91 1011.5
20260509184017 56 0 0.0 0.0 0.06 0.09 0.09 91 1011.5
20260509183515 56 0 0.0 0.0 0.05 0.08 0.08 91 1011.7
20260509183048 56 0 0.0 0.0 0.04 0.07 0.07 91 1011.7
20260509182519 56 0 0.0 1.7 0.04 0.07 0.07 90 1011.6
20260509182018 57 0 0.0 1.7 0.03 0.06 0.06 91 1011.7
20260509181529 56 0 0.0 0.9 0.03 0.06 0.06 91 1011.6
20260509181020 56 0 0.0 0.9 0.03 0.06 0.06 90 1011.7
20260509180521 57 0 0.0 0.9 0.03 0.06 0.06 89 1011.7
20260509180033 57 0 0.0 0.9 0.02 0.05 0.05 89 1011.7
20260509175515 57 0 0.0 0.9 0.02 0.05 0.05 88 1011.7
20260509175015 57 246 0.0 2.6 0.02 0.04 0.04 88 1011.7
20260509174544 57 246 0.0 2.6 0.01 0.03 0.03 87 1011.8
20260509174019 57 244 0.9 2.6 0.01 0.03 0.03 87 1011.7
20260509173515 57 244 0.0 2.6 0.01 0.03 0.03 88 1011.6
20260509173032 58 246 0.0 2.6 0.01 0.03 0.03 89 1011.7
20260509172515 57 246 0.0 2.6 0.02 0.03 0.03 88 1011.7
20260509172016 57 248 0.0 2.6 0.02 0.03 0.03 88 1011.6
20260509171538 58 0 0.0 0.0 0.02 0.03 0.03 89 1011.6
20260509171013 58 0 0.0 0.0 0.02 0.03 0.03 89 1011.6
20260509170511 57 0 0.0 0.0 0.03 0.03 0.03 88 1011.5
20260509170032 58 0 0.0 0.0 0.03 0.03 0.03 89 1011.3
20260509165511 57 0 0.0 0.0 0.03 0.03 0.03 87 1011.3
20260509165013 57 0 0.0 0.9 0.02 0.02 0.02 87 1011.2
20260509164534 57 0 0.0 0.9 0.02 0.02 0.02 86 1011.3
20260509164013 58 0 0.0 0.9 0.02 0.02 0.02 87 1011.4
20260509163512 58 0 0.0 0.9 0.02 0.02 0.02 87 1011.3
20260509163042 58 0 0.0 1.7 0.02 0.02 0.02 87 1011.3
20260509162517 58 0 0.0 2.6 0.01 0.01 0.01 86 1011.3
20260509162013 58 228 0.9 6.1 0.01 0.01 0.01 86 1011.5
20260509161541 58 224 0.9 6.1 0.01 0.01 0.01 86 1011.5
20260509161012 59 219 2.6 6.1 0.01 0.01 0.01 86 1011.7
20260509160511 59 220 1.7 6.1 0.00 0.00 0.00 85 1011.6
20260509160030 59 215 0.9 6.1 0.00 0.00 0.00 85 1011.7
20260509155510 59 0 0.0 6.1 0.00 0.00 0.00 84 1011.7
20260509155010 59 245 1.7 6.1 0.00 0.00 0.00 83 1011.9
20260509154531 59 194 0.9 6.1 0.00 0.00 0.00 83 1011.9
20260509154013 59 201 1.7 6.1 0.00 0.00 0.00 84 1011.9
20260509153511 59 223 1.7 4.3 0.00 0.00 0.00 82 1011.9
20260509153044 59 262 1.7 7.0 0.00 0.00 0.00 83 1012.0
20260509152513 59 250 2.6 7.0 0.00 0.00 0.00 82 1012.0
20260509152013 59 264 1.7 5.2 0.00 0.00 0.00 82 1012.1
20260509151530 59 219 0.9 5.2 0.00 0.00 0.00 82 1012.1
20260509151012 59 225 2.6 5.2 0.00 0.00 0.00 81 1011.9
20260509150516 59 258 0.0 6.1 0.00 0.00 0.00 82 1011.9
20260509150038 59 242 1.7 6.1 0.00 0.00 0.00 81 1011.8
20260509145515 59 290 1.7 3.5 0.00 0.00 0.00 82 1011.8
20260509145015 59 147 0.9 5.2 0.00 0.00 0.00 82 1011.8
20260509144531 59 146 2.6 5.2 0.00 0.00 0.00 81 1011.7
20260509144012 59 169 1.7 5.2 0.00 0.00 0.00 82 1011.7
20260509143515 59 181 2.6 5.2 0.00 0.00 0.00 81 1011.7
20260509143030 59 217 2.6 5.2 0.00 0.00 0.00 80 1011.8
20260509142515 58 179 2.6 5.2 0.00 0.00 0.00 80 1011.7
20260509142015 58 218 1.7 4.3 0.00 0.00 0.00 81 1011.6
20260509141529 58 185 0.0 3.5 0.00 0.00 0.00 81 1011.6
20260509141016 58 190 1.7 4.3 0.00 0.00 0.00 81 1011.7
20260509140515 58 188 1.7 4.3 0.00 0.00 0.00 81 1011.6
20260509140034 58 175 1.7 7.0 0.00 0.00 0.00 80 1011.5
20260509135515 58 126 1.7 7.0 0.00 0.00 0.00 81 1011.4
20260509135016 58 158 0.9 4.3 0.00 0.00 0.00 81 1011.5
20260509134532 58 0 0.9 4.3 0.00 0.00 0.00 81 1011.4
20260509134014 57 174 0.9 4.3 0.00 0.00 0.00 81 1011.5
20260509133515 57 217 0.9 4.3 0.00 0.00 0.00 82 1011.5
20260509133030 57 149 1.7 4.3 0.00 0.00 0.00 81 1011.6
20260509132516 57 175 0.9 3.5 0.00 0.00 0.00 82 1011.5
20260509132011 57 144 0.0 3.5 0.00 0.00 0.00 82 1011.5
20260509131533 57 0 1.7 3.5 0.00 0.00 0.00 82 1011.3
20260509131015 57 148 0.9 3.5 0.00 0.00 0.00 82 1011.3
20260509130515 56 119 0.9 3.5 0.00 0.00 0.00 82 1011.4
20260509130032 56 107 0.0 3.5 0.00 0.00 0.00 82 1011.4
20260509125521 56 0 0.9 3.5 0.00 0.00 0.00 83 1011.5
20260509125019 55 117 0.9 3.5 0.00 0.00 0.00 83 1011.7
20260509124531 55 117 0.9 3.5 0.00 0.00 0.00 83 1011.6
20260509124015 55 116 1.7 2.6 0.00 0.00 0.00 84 1011.5
20260509123513 55 116 0.9 2.6 0.00 0.00 0.00 84 1011.5
20260509123037 54 116 0.9 2.6 0.00 0.00 0.00 85 1011.5
20260509122512 54 116 0.0 1.7 0.00 0.00 0.00 86 1011.5
20260509122015 53 116 0.0 1.7 0.00 0.00 0.00 87 1011.5
20260509121533 53 0 0.0 1.7 0.00 0.00 0.00 89 1011.4
20260509121015 53 116 0.9 1.7 0.00 0.00 0.00 90 1011.5
20260509120519 53 116 0.0 1.7 0.00 0.00 0.00 91 1011.5
20260509120036 52 0 0.0 0.9 0.00 0.00 0.00 90 1011.6
20260509115515 52 0 0.0 1.7 0.00 0.00 0.00 91 1011.6
20260509115013 52 0 0.0 1.7 0.00 0.00 0.00 90 1011.6
20260509114530 52 0 0.0 0.9 0.00 0.00 0.00 91 1011.5
20260509114013 52 0 0.0 0.0 0.00 0.00 0.00 90 1011.4
20260509113514 52 0 0.0 0.0 0.00 0.00 0.00 90 1011.4
20260509113030 52 0 0.0 0.9 0.00 0.00 0.00 90 1011.5
20260509112510 52 0 0.0 0.9 0.00 0.00 0.00 90 1011.4
20260509112011 51 0 0.0 1.7 0.00 0.00 0.00 91 1011.4
20260509111528 51 0 0.0 1.7 0.00 0.00 0.00 91 1011.4
20260509111012 51 0 0.0 3.5 0.00 0.00 0.00 91 1011.4
20260509110513 51 0 0.0 5.2 0.00 0.00 0.00 91 1011.4
20260509110028 50 117 0.9 5.2 0.00 0.00 0.00 92 1011.4
20260509105512 50 100 0.0 2.6 0.00 0.00 0.00 92 1011.1
20260509105010 50 0 0.0 0.0 0.00 0.00 0.00 92 1011.2
20260509104530 50 0 0.0 0.0 0.00 0.00 0.00 92 1011.3
20260509104012 50 0 0.0 0.0 0.00 0.00 0.00 92 1011.2
20260509103510 50 0 0.0 0.0 0.00 0.00 0.00 92 1011.1
20260509103033 49 0 0.0 0.0 0.00 0.00 0.00 92 1011.2
20260509102513 49 0 0.0 0.0 0.00 0.00 0.00 91 1011.2
20260509102015 49 0 0.0 0.0 0.00 0.00 0.00 91 1011.0
20260509101530 49 0 0.0 0.0 0.00 0.00 0.00 92 1011.0
20260509101015 49 0 0.0 0.0 0.00 0.00 0.00 91 1011.0
20260509100511 49 0 0.0 0.0 0.00 0.00 0.00 91 1011.0
20260509100029 49 0 0.0 0.0 0.00 0.00 0.00 91 1011.1
20260509095515 49 0 0.0 0.0 0.00 0.00 0.00 92 1011.0
20260509095012 49 0 0.0 0.0 0.00 0.00 0.00 92 1011.2
20260509094529 49 0 0.0 0.0 0.00 0.00 0.00 91 1011.3
20260509094011 49 0 0.0 0.0 0.00 0.00 0.00 91 1011.1
20260509093511 49 0 0.0 0.0 0.00 0.00 0.00 91 1011.2
20260509093040 49 0 0.0 0.0 0.00 0.00 0.00 91 1011.2
20260509092512 49 0 0.0 0.0 0.00 0.00 0.00 91 1011.2
20260509092014 49 0 0.0 0.0 0.00 0.00 0.00 91 1011.2
20260509091529 49 0 0.0 0.0 0.00 0.00 0.00 91 1011.2
20260509091015 49 0 0.0 0.0 0.00 0.00 0.00 91 1011.3
20260509090511 49 0 0.0 0.0 0.00 0.00 0.00 91 1011.3
20260509090032 49 0 0.0 0.0 0.00 0.00 0.00 90 1011.2
20260509085511 49 0 0.0 0.0 0.00 0.00 0.00 91 1011.3
20260509085013 49 0 0.0 0.0 0.00 0.00 0.00 91 1011.4
20260509084533 49 0 0.0 0.0 0.00 0.00 0.00 91 1011.5
20260509084013 49 0 0.0 0.0 0.00 0.00 0.00 90 1011.6
20260509083513 49 0 0.0 0.0 0.00 0.00 0.00 90 1011.6
20260509083032 49 0 0.0 0.0 0.00 0.00 0.00 90 1011.5
20260509082510 49 0 0.0 0.0 0.00 0.00 0.00 90 1011.6
20260509082055 49 0 0.0 0.0 0.00 0.00 0.00 90 1011.6